TimeHST,TemperatureF,Dew PointF,Humidity,Sea Level PressureIn,VisibilityMPH,Wind Direction,Wind SpeedMPH,Gust SpeedMPH,PrecipitationIn,Events,Conditions,WindDirDegrees,DateUTC
12:53 AM,79.0,66.0,64,30.11,10.0,ENE,19.6,26.5,N/A,,Scattered Clouds,60,2011-10-10 10:53:00
1:53 AM,79.0,68.0,69,30.10,10.0,ENE,15.0,-,N/A,,Scattered Clouds,70,2011-10-10 11:53:00
2:53 AM,78.1,68.0,71,30.09,10.0,ENE,10.4,-,0.00,Rain,Light Rain,60,2011-10-10 12:53:00
3:53 AM,77.0,68.0,74,30.07,10.0,ENE,17.3,-,0.00,,Scattered Clouds,60,2011-10-10 13:53:00
4:53 AM,78.1,68.0,71,30.07,10.0,ENE,19.6,25.3,N/A,,Scattered Clouds,60,2011-10-10 14:53:00
5:53 AM,78.1,68.0,71,30.08,10.0,ENE,15.0,19.6,N/A,,Mostly Cloudy,60,2011-10-10 15:53:00
6:53 AM,79.0,66.9,66,30.08,10.0,ENE,13.8,18.4,N/A,,Scattered Clouds,60,2011-10-10 16:53:00
7:53 AM,80.1,68.0,67,30.09,10.0,NE,8.1,-,N/A,,Scattered Clouds,50,2011-10-10 17:53:00
8:53 AM,81.0,68.0,65,30.11,10.0,ENE,12.7,-,N/A,,Scattered Clouds,60,2011-10-10 18:53:00
9:53 AM,81.0,69.1,67,30.12,10.0,ENE,17.3,23.0,N/A,,Mostly Cloudy,70,2011-10-10 19:53:00
10:53 AM,84.9,66.9,55,30.10,10.0,NE,18.4,26.5,N/A,,Mostly Cloudy,50,2011-10-10 20:53:00
11:53 AM,84.0,66.9,56,30.08,10.0,NE,19.6,25.3,N/A,,Mostly Cloudy,50,2011-10-10 21:53:00
12:53 PM,87.1,64.0,46,30.04,10.0,East,20.7,28.8,N/A,,Scattered Clouds,80,2011-10-10 22:53:00
1:53 PM,84.9,64.9,51,30.01,10.0,NNE,15.0,-,N/A,,Scattered Clouds,30,2011-10-10 23:53:00
2:53 PM,84.9,64.9,51,30.00,10.0,NE,13.8,25.3,N/A,,Scattered Clouds,40,2011-10-11 00:53:00
3:53 PM,84.9,66.9,55,29.99,10.0,NE,13.8,20.7,0.00,,Mostly Cloudy,40,2011-10-11 01:53:00
4:53 PM,82.9,66.0,56,30.00,10.0,NE,11.5,-,N/A,,Mostly Cloudy,40,2011-10-11 02:53:00
5:53 PM,81.0,66.0,60,30.01,10.0,ENE,12.7,23.0,N/A,,Mostly Cloudy,60,2011-10-11 03:53:00
6:53 PM,80.1,66.9,64,30.03,10.0,NE,10.4,-,N/A,,Mostly Cloudy,50,2011-10-11 04:53:00
7:53 PM,78.1,68.0,71,30.05,10.0,North,3.5,-,0.00,,Mostly Cloudy,360,2011-10-11 05:53:00
8:53 PM,79.0,66.9,66,30.06,10.0,ENE,15.0,19.6,N/A,,Mostly Cloudy,60,2011-10-11 06:53:00
9:53 PM,78.1,66.9,68,30.06,10.0,ENE,12.7,-,N/A,,Scattered Clouds,60,2011-10-11 07:53:00
10:53 PM,79.0,66.9,66,30.05,10.0,ENE,11.5,-,N/A,,Scattered Clouds,60,2011-10-11 08:53:00
11:53 PM,78.1,66.9,68,30.04,10.0,NE,10.4,-,N/A,,Scattered Clouds,50,2011-10-11 09:53:00